PBO Station Position Time Series. Reference Frame : NAM14
Format Version,1.1.0
4-character ID,TSTU
Station name,Studebaker
Begin Date, 2004-10-16
End Date, 2019-10-07
Release Date, 2019-10-08
Reference position, 46.2368673309 North Latitude, -122.2240651329 East Longitude, 1248.63101 meters elevation,
Date, North (mm), East (mm), Vertical (mm), North Std. Deviation (mm), East Std. Deviation (mm),              Vertical Std. Deviation (mm), Quality,
2004-10-16,0.00, 0.00, 0.00, 2.20, 1.58, 7.06, repro,
2004-10-18,0.51, 2.48, 11.17, 2.32, 1.65, 7.53, repro,
2004-10-19,-8.54, 6.46, -7.01, 2.27, 1.61, 7.17, repro,
2004-10-20,-1.68, 1.79, 8.55, 2.31, 1.64, 7.35, repro,
2004-10-21,-0.85, 1.38, 2.63, 2.25, 1.59, 7.14, repro,
2004-10-22,-2.84, 0.57, -0.83, 2.26, 1.60, 7.16, repro,
2004-10-23,-1.55, 0.88, 9.39, 2.35, 1.69, 7.52, repro,
2004-10-25,-4.05, 0.52, 5.89, 2.21, 1.59, 7.08, repro,
2004-10-26,-5.08, 9.38, -11.59, 2.45, 1.72, 7.74, repro,
2004-10-27,-1.75, 3.65, 6.04, 2.36, 1.67, 7.55, repro,
2004-10-28,-2.24, 1.89, 7.46, 2.21, 1.59, 7.08, repro,
2004-10-29,-1.21, 1.86, 1.62, 2.25, 1.62, 7.29, repro,
2004-10-30,-1.96, 0.06, 12.59, 2.29, 1.67, 7.45, repro,
2004-10-31,-1.86, 1.56, 1.38, 2.25, 1.62, 7.27, repro,
2004-11-01,-2.27, 2.18, -14.98, 2.31, 1.67, 7.48, repro,
2004-11-02,1.02, 3.57, -9.50, 2.21, 1.60, 7.10, repro,
2004-11-03,-1.91, 2.44, -5.90, 2.25, 1.64, 7.24, repro,
2004-11-04,-2.84, 2.18, 3.45, 2.29, 1.70, 7.42, repro,
2004-11-05,-3.00, 2.92, 6.91, 2.29, 1.69, 7.40, repro,
2004-11-06,-3.32, 2.35, 6.58, 2.32, 1.71, 7.47, repro,
2004-11-07,-2.31, 2.10, -2.89, 2.29, 1.68, 7.44, repro,
2004-11-08,-2.28, 3.42, -2.06, 2.65, 1.95, 8.92, repro,
2004-11-09,-2.62, 2.51, 2.26, 2.25, 1.63, 7.24, repro,
2004-11-10,-3.00, 2.65, 1.63, 2.36, 1.72, 7.84, repro,
2004-11-11,-0.72, 2.79, -1.15, 2.24, 1.65, 7.26, repro,
2004-11-12,-1.49, 3.01, 0.55, 2.28, 1.67, 7.41, repro,
2004-11-13,-3.85, 3.12, -6.32, 2.21, 1.59, 7.05, repro,
2004-11-14,-1.96, 2.28, -3.58, 2.26, 1.64, 7.21, repro,
2004-11-15,-3.77, 4.62, -10.11, 2.31, 1.69, 7.54, repro,
2004-11-16,-4.22, 2.93, 0.51, 2.20, 1.60, 7.06, repro,
2004-11-17,-1.01, 3.22, -5.57, 2.17, 1.58, 6.99, repro,
2004-11-18,-4.23, 3.07, -7.75, 2.21, 1.62, 7.19, repro,
2004-11-19,-1.89, 4.28, -5.82, 2.35, 1.74, 7.69, repro,
2004-11-20,-1.01, 4.08, -2.08, 2.41, 1.75, 7.84, repro,
2004-11-21,-4.54, 3.69, -1.26, 2.48, 1.81, 7.91, repro,
2004-11-22,-0.51, 3.24, -4.65, 2.29, 1.73, 7.65, repro,
2004-11-23,-2.45, 2.46, -0.65, 2.28, 1.64, 7.23, repro,
2004-11-24,-4.54, 3.43, -11.22, 2.27, 1.64, 7.23, repro,
2004-11-25,-3.34, 2.76, 0.39, 2.41, 1.77, 7.95, repro,
2004-11-26,-2.71, 3.02, 1.87, 2.23, 1.65, 7.34, repro,
2004-11-27,-0.89, 3.90, 4.31, 2.29, 1.72, 7.53, repro,
2004-11-28,-2.07, 4.01, -2.45, 2.22, 1.65, 7.28, repro,
2004-11-29,-2.70, 2.66, -2.76, 2.14, 1.58, 6.93, repro,
2004-11-30,-1.19, 2.76, -1.33, 2.20, 1.62, 7.18, repro,
2004-12-01,-2.49, 4.11, -8.89, 2.31, 1.65, 7.34, repro,
2004-12-02,-2.35, 3.20, -2.24, 2.24, 1.59, 7.09, repro,
2004-12-03,-2.06, 2.86, 3.40, 2.30, 1.67, 7.34, repro,
2004-12-04,-5.23, 2.22, 2.88, 2.27, 1.66, 7.46, repro,
2004-12-05,-2.63, 2.81, 4.46, 2.22, 1.62, 7.24, repro,
2004-12-06,-3.43, 2.46, 2.42, 2.37, 1.75, 7.74, repro,
2004-12-07,-3.48, 3.54, 12.41, 2.42, 1.76, 7.83, repro,
2004-12-08,-1.53, 4.24, 10.16, 2.26, 1.64, 7.26, repro,
2004-12-09,-2.61, 2.91, 6.76, 2.22, 1.61, 7.12, repro,
2004-12-10,-3.53, 6.16, -6.70, 2.30, 1.72, 7.56, repro,
2004-12-11,-1.78, 3.87, -11.88, 2.26, 1.66, 7.41, repro,
2004-12-12,-3.27, 4.27, -6.28, 2.24, 1.62, 7.25, repro,
2004-12-13,-8.33, 11.17, -10.58, 2.27, 1.64, 7.36, repro,
2004-12-14,-4.64, 5.35, -12.63, 2.42, 1.74, 7.73, repro,
2004-12-15,-3.84, 5.38, -6.33, 2.29, 1.64, 7.17, repro,
2004-12-16,-2.52, 4.65, -6.89, 2.22, 1.57, 7.11, repro,
2004-12-17,-2.37, 5.52, -8.68, 2.20, 1.61, 7.15, repro,
2004-12-18,-3.46, 4.76, -7.64, 2.17, 1.58, 7.03, repro,
2004-12-19,-5.08, 3.10, -7.59, 2.14, 1.56, 6.95, repro,
2004-12-20,-2.30, 5.33, -1.17, 2.13, 1.54, 6.84, repro,
2004-12-21,-2.10, 5.66, 5.48, 2.18, 1.58, 7.09, repro,
2004-12-22,-1.20, 5.79, 0.16, 2.20, 1.60, 7.16, repro,
2004-12-23,-3.39, 5.59, -9.00, 2.19, 1.61, 7.10, repro,
2004-12-24,-3.58, 5.14, -12.12, 2.18, 1.60, 7.08, repro,
2004-12-25,-5.97, 5.24, -5.20, 2.15, 1.58, 6.98, repro,
2004-12-26,-4.07, 5.85, -0.05, 2.24, 1.58, 7.03, repro,
2004-12-27,-8.71, 8.62, -15.61, 2.25, 1.59, 7.09, repro,
2004-12-28,-3.25, 3.60, -9.54, 2.33, 1.62, 7.25, repro,
2004-12-29,-4.46, 4.40, -2.84, 2.35, 1.63, 7.27, repro,
2004-12-30,-6.51, 4.65, -2.19, 2.41, 1.71, 7.51, repro,
2004-12-31,-9.34, 5.41, -9.20, 2.59, 1.82, 7.91, repro,
2005-01-01,-12.58, 4.31, -10.48, 2.33, 1.62, 7.15, repro,
2005-01-02,-2.95, 3.51, -8.60, 2.36, 1.63, 7.25, repro,
2005-01-03,-4.63, 4.68, -10.74, 2.42, 1.71, 7.52, repro,
2005-01-04,-4.11, 5.96, -9.95, 2.36, 1.62, 7.20, repro,
2005-01-05,-3.18, 5.39, -9.75, 2.28, 1.59, 7.08, repro,
2005-01-06,-2.87, 5.18, -6.87, 2.28, 1.63, 7.19, repro,
2005-01-07,-5.20, 8.35, -13.89, 2.31, 1.63, 7.26, repro,
2005-01-08,-2.73, 8.74, -20.92, 2.28, 1.63, 7.22, repro,
2005-01-09,-3.83, 7.25, -20.83, 2.26, 1.64, 7.25, repro,
2005-01-10,-2.49, 4.28, -5.71, 2.46, 1.82, 8.03, repro,
2005-01-11,-4.32, 4.52, -3.09, 2.37, 1.80, 7.70, repro,
2005-01-12,-4.14, 5.64, -8.50, 2.44, 1.79, 7.92, repro,
2005-01-13,-1.85, 7.53, -0.59, 2.46, 1.81, 7.91, repro,
2005-01-14,-2.97, 8.41, -7.99, 2.34, 1.72, 7.51, repro,
2005-01-15,-5.78, 6.48, -13.26, 2.43, 1.89, 8.17, repro,
2005-01-16,-7.12, 4.80, -24.26, 2.31, 1.67, 7.22, repro,
2005-01-17,-6.20, 6.57, -16.87, 2.20, 1.59, 7.01, repro,
2005-01-18,-1.25, 7.53, -19.80, 2.30, 1.66, 7.36, repro,
2005-01-19,3.57, 7.73, -26.74, 2.34, 1.65, 7.27, repro,
2005-01-20,0.20, 6.56, -16.38, 2.28, 1.64, 7.27, repro,
2005-01-21,-4.71, 6.16, -14.76, 2.28, 1.68, 7.43, repro,
2005-01-22,-4.32, 5.22, -3.52, 2.22, 1.64, 7.21, repro,
2005-01-23,-3.65, 3.97, -6.52, 2.20, 1.60, 7.04, repro,
2005-01-24,-5.76, 4.12, -9.98, 2.25, 1.64, 7.21, repro,
2005-01-25,-10.62, 6.73, -9.89, 2.33, 1.79, 7.91, repro,
2005-01-26,-17.21, 9.25, -25.47, 2.20, 1.60, 7.07, repro,
2005-01-27,-6.10, 5.39, -10.13, 2.20, 1.60, 7.08, repro,
2005-01-28,-10.05, 7.99, -19.13, 2.29, 1.77, 7.53, repro,
2005-01-29,-7.88, 5.53, -8.95, 2.20, 1.58, 7.05, repro,
2005-01-30,-5.15, 6.87, -11.97, 2.21, 1.61, 7.11, repro,
2005-01-31,-6.14, 4.28, -11.79, 2.23, 1.63, 7.14, repro,
2005-02-01,-4.52, 6.02, -11.54, 2.21, 1.62, 7.13, repro,
2005-02-02,-5.18, 6.87, -13.32, 2.19, 1.56, 6.98, repro,
2005-02-03,-4.13, 6.70, -10.43, 2.25, 1.58, 7.13, repro,
2005-02-04,-4.30, 6.54, -13.08, 2.20, 1.56, 6.97, repro,
2005-02-05,-3.38, 5.43, -10.82, 2.18, 1.56, 6.96, repro,
2005-02-06,-4.94, 6.73, -10.53, 2.17, 1.55, 6.93, repro,
2005-02-07,-3.58, 5.70, -9.35, 2.18, 1.55, 6.92, repro,
2005-02-08,-3.23, 5.74, -9.32, 2.25, 1.61, 7.17, repro,
2005-02-09,-4.84, 6.19, -5.27, 2.23, 1.59, 7.12, repro,
2005-02-10,-6.02, 6.04, -5.08, 2.18, 1.54, 6.94, repro,
2005-02-11,-6.74, 5.68, -7.09, 2.19, 1.56, 6.98, repro,
2005-02-12,-7.12, 4.79, -7.30, 2.18, 1.55, 6.97, repro,
2005-02-13,-3.29, 5.19, 0.35, 2.20, 1.55, 6.95, repro,
2005-02-14,-4.49, 6.06, -3.62, 2.19, 1.55, 6.93, repro,
2005-02-15,-5.64, 5.14, -7.70, 2.19, 1.54, 6.96, repro,
2005-02-16,-4.95, 4.75, -11.67, 2.19, 1.54, 6.93, repro,
2005-02-17,-4.97, 5.87, -10.43, 2.26, 1.57, 7.04, repro,
2005-02-18,-4.72, 5.79, -5.97, 2.25, 1.60, 7.20, repro,
2005-02-19,-4.83, 6.00, -5.97, 2.21, 1.57, 7.00, repro,
2005-02-20,-4.65, 5.36, -6.57, 2.19, 1.56, 6.93, repro,
2005-02-21,-5.16, 5.30, -6.39, 2.23, 1.60, 7.09, repro,
2005-02-22,-5.82, 6.42, -8.80, 2.21, 1.55, 6.98, repro,
2005-02-23,-5.25, 7.00, -6.01, 2.28, 1.57, 7.12, repro,
2005-02-24,-5.02, 6.43, -5.81, 2.27, 1.57, 7.11, repro,
2005-02-25,-5.96, 6.15, -5.66, 2.26, 1.56, 7.04, repro,
2005-02-26,-5.99, 5.73, -0.72, 2.24, 1.56, 7.01, repro,
2005-02-27,-12.53, 10.78, -19.58, 2.25, 1.56, 7.07, repro,
2005-02-28,-9.32, 11.42, -21.61, 2.26, 1.57, 7.11, repro,
2005-03-01,-10.51, 5.92, -8.02, 2.28, 1.57, 7.11, repro,
2005-03-02,-9.31, 5.86, -11.65, 2.27, 1.56, 7.05, repro,
2005-03-03,-4.29, 6.12, -5.07, 2.26, 1.56, 7.05, repro,
2005-03-04,-4.89, 5.28, -3.29, 2.23, 1.56, 7.00, repro,
2005-03-05,-3.28, 6.19, -7.54, 2.27, 1.57, 7.05, repro,
2005-03-06,-3.73, 7.79, -6.22, 2.28, 1.58, 7.13, repro,
2005-03-07,-3.44, 7.72, -3.04, 2.27, 1.57, 7.03, repro,
2005-03-08,-4.10, 7.17, -8.88, 2.25, 1.57, 7.02, repro,
2005-03-09,-5.21, 5.59, -8.51, 2.30, 1.61, 7.20, repro,
2005-03-10,-5.38, 9.16, -0.74, 5.41, 3.73, 15.55, repro,
2005-03-11,-5.02, 7.52, -6.36, 2.26, 1.56, 7.05, repro,
2005-03-12,-5.15, 7.42, -7.76, 2.27, 1.56, 7.04, repro,
2005-03-13,-3.79, 5.97, -12.54, 2.26, 1.58, 7.09, repro,
2005-03-14,-4.12, 6.45, -9.44, 2.25, 1.56, 7.03, repro,
2005-03-15,-4.12, 5.73, -3.19, 2.40, 1.62, 7.26, repro,
2005-03-16,-3.99, 7.26, 2.53, 2.30, 1.60, 7.19, repro,
2005-03-17,-4.63, 6.42, -1.83, 2.27, 1.57, 7.07, repro,
2005-03-18,-4.21, 6.69, -5.10, 2.26, 1.57, 7.08, repro,
2005-03-19,-5.72, 6.54, -5.32, 2.26, 1.57, 7.06, repro,
2005-03-20,-2.55, 11.81, -8.26, 2.28, 1.57, 7.06, repro,
2005-03-21,-2.68, 8.08, 5.61, 2.28, 1.56, 7.07, repro,
2005-03-22,-4.40, 6.40, -5.19, 2.26, 1.56, 7.05, repro,
2005-03-23,-5.22, 6.48, -4.15, 2.26, 1.56, 7.06, repro,
2005-03-24,-6.01, 6.64, -3.46, 2.26, 1.58, 7.09, repro,
2005-03-25,-5.82, 6.32, -1.17, 2.25, 1.57, 7.03, repro,
2005-03-26,-6.38, 8.20, -7.37, 2.27, 1.56, 7.03, repro,
2005-03-27,-6.10, 9.19, -9.25, 2.27, 1.57, 7.03, repro,
2005-03-28,-3.71, 6.72, 3.62, 2.27, 1.58, 7.11, repro,
2005-03-29,-4.49, 4.86, -1.18, 2.34, 1.63, 7.31, repro,
2005-03-30,-4.29, 4.18, -3.66, 2.26, 1.58, 7.05, repro,
2005-03-31,-7.15, 6.02, -3.35, 2.31, 1.60, 7.23, repro,
2005-04-01,-7.28, 9.37, -2.31, 2.28, 1.57, 7.13, repro,
2005-04-02,-4.56, 7.19, -8.00, 2.28, 1.57, 7.10, repro,
2005-04-03,-8.94, 4.67, -5.18, 2.35, 1.59, 7.34, repro,
2005-04-04,-7.28, 7.16, -1.14, 2.43, 1.64, 7.61, repro,
2005-04-05,-6.39, 6.26, -5.15, 2.32, 1.59, 7.30, repro,
2005-04-06,-8.55, 10.03, -7.34, 2.33, 1.63, 7.37, repro,
2005-04-07,-7.65, 8.04, -2.57, 2.27, 1.57, 7.14, repro,
2005-04-08,-6.41, 6.92, 5.91, 2.33, 1.58, 7.28, repro,
2005-04-09,-6.12, 6.65, -2.82, 2.35, 1.58, 7.34, repro,
2005-04-10,-5.41, 6.82, -5.31, 2.31, 1.57, 7.24, repro,
2005-04-11,-6.69, 7.75, 1.03, 2.31, 1.57, 7.26, repro,
2005-04-12,-3.99, 9.68, 0.71, 2.37, 1.62, 7.51, repro,
2005-04-13,-4.80, 5.07, -0.79, 2.36, 1.59, 7.35, repro,
2005-04-14,-6.62, 8.68, -7.97, 2.44, 1.64, 7.39, repro,
2005-04-15,-7.72, 6.71, -8.26, 2.35, 1.59, 7.21, repro,
2005-04-16,-6.79, 9.48, -19.44, 2.27, 1.57, 7.07, repro,
2005-04-17,-9.22, 7.06, -6.84, 2.26, 1.57, 7.03, repro,
2005-04-18,-7.03, 8.43, -7.27, 2.29, 1.57, 7.07, repro,
2005-04-19,-7.39, 7.96, -8.31, 2.28, 1.57, 7.03, repro,
2005-04-20,-7.78, 7.45, -5.15, 2.34, 1.58, 7.27, repro,
2005-04-21,-7.83, 8.43, -11.21, 2.33, 1.58, 7.33, repro,
2005-04-22,-11.20, 12.29, -18.40, 2.43, 1.60, 7.30, repro,
2005-04-23,-13.46, 11.34, -8.68, 2.32, 1.59, 7.34, repro,
2005-04-24,-7.07, 8.00, -5.25, 2.32, 1.58, 7.27, repro,
2005-04-25,-8.23, 9.91, -13.90, 2.28, 1.58, 7.09, repro,
2005-04-26,-5.53, 8.44, -19.05, 2.33, 1.59, 7.31, repro,
2005-04-27,-6.35, 7.39, -15.04, 2.26, 1.57, 7.07, repro,
2005-04-28,-6.87, 8.92, -8.14, 2.31, 1.62, 7.23, repro,
2005-04-29,-6.80, 8.00, -11.90, 2.27, 1.57, 7.04, repro,
2005-04-30,-6.53, 7.59, -16.48, 2.28, 1.57, 7.06, repro,
2005-05-08,-8.33, 6.78, -8.28, 2.26, 1.57, 7.05, repro,
2005-05-09,-7.52, 9.88, -11.73, 2.27, 1.57, 7.07, repro,
2005-05-10,-7.72, 8.55, -1.92, 2.32, 1.60, 7.25, repro,
2005-05-11,-7.71, 8.12, -10.82, 2.43, 1.69, 7.64, repro,
2005-05-12,-6.52, 7.89, -16.81, 2.35, 1.67, 7.49, repro,
2005-05-13,-6.66, 8.20, -12.45, 2.41, 1.70, 7.58, repro,
2005-05-14,-9.43, 7.10, -14.82, 2.41, 1.71, 7.71, repro,
2005-05-15,-6.54, 8.32, -8.18, 2.37, 1.65, 7.50, repro,
2005-05-16,-7.26, 9.44, -1.97, 2.27, 1.61, 7.14, repro,
2005-05-17,-10.36, 6.80, -4.61, 2.38, 1.64, 7.33, repro,
2005-05-18,-14.38, 10.68, -14.54, 2.42, 1.67, 7.50, repro,
2005-05-19,-6.02, 11.54, -22.72, 2.31, 1.64, 7.35, repro,
2005-05-20,-5.54, 8.21, -11.82, 2.30, 1.62, 7.25, repro,
2005-05-21,-8.02, 6.20, -11.10, 2.29, 1.62, 7.20, repro,
2005-05-22,-3.83, 8.57, -20.95, 2.30, 1.61, 7.21, repro,
2005-05-23,-6.74, 9.31, -14.35, 2.29, 1.62, 7.17, repro,
2005-05-24,-7.06, 8.54, -13.03, 2.38, 1.67, 7.52, repro,
2005-05-25,-5.10, 9.56, -17.85, 2.30, 1.61, 7.27, repro,
2005-05-26,-5.74, 7.94, -12.24, 2.30, 1.61, 7.22, repro,
2005-05-27,-5.98, 7.78, -6.70, 2.27, 1.61, 7.19, repro,
2005-05-28,-7.29, 7.92, -10.62, 2.29, 1.61, 7.20, repro,
2005-05-29,-7.79, 7.96, -7.99, 2.48, 1.74, 8.10, repro,
2005-05-30,-5.57, 8.01, -15.20, 2.30, 1.62, 7.26, repro,
2005-05-31,-8.17, 8.65, -13.34, 2.29, 1.61, 7.24, repro,
2005-06-01,-6.94, 8.56, -8.19, 2.25, 1.56, 7.00, repro,
2005-06-02,-7.52, 8.58, -11.09, 2.26, 1.56, 7.01, repro,
2005-06-03,-5.77, 8.37, -9.72, 2.27, 1.57, 7.04, repro,
2005-06-04,-7.55, 8.48, -8.85, 2.31, 1.57, 7.13, repro,
2005-06-05,-8.65, 8.00, -7.79, 2.29, 1.58, 7.12, repro,
2005-06-06,-12.83, 6.72, -11.43, 2.29, 1.57, 7.10, repro,
2005-06-07,-5.99, 8.30, -8.04, 2.26, 1.57, 7.08, repro,
2005-06-08,-8.35, 9.55, -11.88, 2.25, 1.56, 6.99, repro,
2005-06-09,-7.14, 8.04, -5.65, 2.35, 1.60, 7.25, repro,
2005-06-10,-8.63, 8.91, -9.70, 2.34, 1.62, 7.31, repro,
2005-06-11,-8.02, 7.54, -5.03, 2.33, 1.62, 7.29, repro,
2005-06-12,-5.86, 8.58, -10.39, 2.34, 1.64, 7.32, repro,
2005-06-13,-7.08, 5.86, -6.18, 2.31, 1.62, 7.25, repro,
2005-06-14,-6.65, 8.69, -14.62, 2.32, 1.61, 7.23, repro,
2005-06-15,-7.58, 8.35, -11.74, 2.27, 1.57, 7.06, repro,
2005-06-16,-12.44, 11.40, -11.95, 2.36, 1.59, 7.22, repro,
2005-06-17,-7.96, 8.03, -5.88, 2.35, 1.60, 7.17, repro,
2005-06-18,-9.64, 7.47, -10.74, 2.27, 1.58, 7.11, repro,
2005-06-19,-6.67, 7.17, -7.52, 2.25, 1.56, 7.06, repro,
2005-06-20,-9.29, 7.72, -7.75, 2.28, 1.58, 7.13, repro,
2005-06-21,-12.06, 8.86, -12.40, 2.28, 1.58, 7.16, repro,
2005-06-22,-7.82, 7.66, -15.18, 2.28, 1.58, 7.11, repro,
2005-06-23,-8.02, 7.48, -11.97, 2.27, 1.57, 7.04, repro,
2005-06-24,-6.41, 7.94, -6.27, 2.26, 1.56, 7.06, repro,
2005-06-25,-8.09, 8.65, -10.80, 2.33, 1.60, 7.28, repro,
2005-06-26,-7.60, 9.20, -11.64, 2.39, 1.60, 7.29, repro,
2005-06-27,-7.44, 8.53, -14.56, 2.29, 1.57, 7.08, repro,
2005-06-28,-7.92, 8.52, -7.12, 2.27, 1.57, 7.03, repro,
2005-06-29,-8.31, 7.75, -4.48, 2.33, 1.60, 7.24, repro,
2005-06-30,-7.35, 6.77, -5.85, 2.23, 1.56, 7.01, repro,
2005-07-01,-5.21, 7.09, -9.92, 2.28, 1.58, 7.09, repro,
2005-07-02,-7.11, 8.34, -8.39, 2.28, 1.57, 7.06, repro,
2005-07-03,-8.92, 8.12, -6.90, 2.26, 1.56, 7.04, repro,
2005-07-04,-9.19, 8.78, -11.43, 2.26, 1.56, 7.02, repro,
2005-07-05,-8.00, 8.64, -15.29, 2.25, 1.56, 7.01, repro,
2005-07-06,-8.61, 8.95, -16.87, 2.26, 1.56, 7.08, repro,
2005-07-07,-6.66, 6.90, -9.36, 2.41, 1.65, 7.41, repro,
2005-07-08,-9.44, 6.87, -5.45, 2.33, 1.61, 7.22, repro,
2005-07-09,-9.13, 9.27, -13.89, 2.34, 1.63, 7.20, repro,
2005-07-10,-7.50, 8.43, -7.89, 2.37, 1.66, 7.38, repro,
2005-07-11,-8.12, 7.85, -14.31, 2.27, 1.57, 7.11, repro,
2005-07-12,-7.10, 8.18, -13.42, 2.27, 1.57, 7.06, repro,
2005-07-13,-6.98, 7.93, -10.74, 2.27, 1.57, 7.07, repro,
2005-07-14,-7.07, 8.44, -6.77, 2.28, 1.62, 7.20, repro,
2005-07-15,-8.49, 8.83, -4.22, 2.25, 1.57, 7.02, repro,
2005-07-16,-6.71, 8.47, -1.64, 2.26, 1.57, 7.04, repro,
2005-07-17,-7.06, 8.83, -4.05, 2.28, 1.58, 7.15, repro,
2005-07-18,-7.57, 9.33, -5.64, 2.28, 1.58, 7.14, repro,
2005-07-19,-7.20, 8.91, -1.17, 2.26, 1.58, 7.09, repro,
2005-07-20,-6.16, 8.48, -5.21, 2.26, 1.58, 7.07, repro,
2005-07-21,-8.90, 8.87, -3.63, 2.26, 1.57, 7.01, repro,
2005-07-22,-8.20, 8.23, -5.45, 2.28, 1.58, 7.13, repro,
2005-07-23,-7.81, 8.88, -9.14, 2.30, 1.58, 7.17, repro,
2005-07-24,-7.59, 7.79, -8.12, 2.29, 1.61, 7.26, repro,
2005-07-25,-6.44, 9.67, -10.30, 2.29, 1.60, 7.23, repro,
2005-07-26,-7.61, 10.18, -7.67, 2.32, 1.66, 7.44, repro,
2005-07-27,-6.84, 7.67, -4.03, 2.33, 1.67, 7.38, repro,
2005-07-28,-7.96, 8.78, -5.59, 2.36, 1.68, 7.49, repro,
2005-07-29,-8.14, 9.47, -9.72, 2.32, 1.62, 7.37, repro,
2005-07-30,-6.15, 10.17, -9.95, 2.30, 1.61, 7.29, repro,
2005-07-31,-3.85, 10.96, -10.39, 2.31, 1.62, 7.34, repro,
2005-08-01,-6.37, 10.29, -4.28, 2.29, 1.60, 7.21, repro,
2005-08-02,-8.29, 9.89, -7.69, 2.28, 1.61, 7.21, repro,
2005-08-03,-7.01, 9.79, -5.70, 2.29, 1.57, 7.14, repro,
2005-08-04,-8.75, 9.36, -11.02, 2.28, 1.58, 7.12, repro,
2005-08-05,-7.68, 8.72, -4.18, 2.27, 1.59, 7.19, repro,
2005-08-06,-7.74, 9.76, -5.97, 2.28, 1.57, 7.09, repro,
2005-08-07,-5.89, 8.45, -4.35, 2.26, 1.56, 7.00, repro,
2005-08-08,-8.03, 9.31, -5.73, 2.27, 1.57, 7.05, repro,
2005-08-09,-7.41, 8.56, -3.71, 2.28, 1.58, 7.13, repro,
2005-08-10,-7.84, 9.37, -6.62, 2.27, 1.58, 7.13, repro,
2005-08-11,-7.72, 10.02, -6.71, 2.41, 1.74, 7.69, repro,
2005-08-12,-10.27, 9.09, -9.99, 2.33, 1.63, 7.26, repro,
2005-08-13,-7.12, 8.52, 0.59, 2.28, 1.58, 7.10, repro,
2005-08-14,-6.84, 8.13, 0.47, 2.32, 1.62, 7.24, repro,
2005-08-15,-8.02, 8.10, -0.29, 2.35, 1.63, 7.34, repro,
2005-08-16,-7.41, 10.20, -6.76, 2.34, 1.64, 7.28, repro,
2005-08-17,-6.74, 11.57, -8.45, 2.35, 1.64, 7.36, repro,
2005-08-18,-8.15, 10.16, -7.89, 2.26, 1.58, 7.08, repro,
2005-08-19,-6.87, 9.61, 1.96, 2.26, 1.57, 7.08, repro,
2005-08-20,-8.11, 9.07, -8.58, 2.27, 1.57, 7.06, repro,
2005-08-21,-8.18, 9.47, -2.81, 2.31, 1.63, 7.28, repro,
2005-08-22,-5.05, 8.70, -8.31, 2.32, 1.62, 7.34, repro,
2005-08-23,-7.42, 8.75, -2.95, 2.34, 1.63, 7.30, repro,
2005-08-24,-7.09, 8.27, -6.68, 2.37, 1.65, 7.42, repro,
2005-08-25,-7.92, 8.91, 2.27, 2.42, 1.70, 7.56, repro,
2005-08-26,-8.87, 9.04, -1.37, 2.40, 1.66, 7.49, repro,
2005-08-27,-7.57, 9.09, -8.59, 2.41, 1.68, 7.56, repro,
2005-08-28,-6.91, 10.49, -11.78, 2.38, 1.68, 7.49, repro,
2005-08-29,-7.34, 9.15, 2.28, 2.37, 1.66, 7.43, repro,
2005-08-30,-7.56, 8.60, 2.91, 2.43, 1.75, 7.75, repro,
2005-08-31,-9.33, 8.06, 0.49, 2.40, 1.71, 7.54, repro,
2005-09-01,-9.02, 8.71, -0.81, 2.40, 1.67, 7.53, repro,
2005-09-02,-7.65, 9.45, -7.20, 2.65, 1.83, 8.22, repro,
2005-09-03,-7.01, 9.28, -3.91, 2.37, 1.67, 7.41, repro,
2005-09-04,-7.76, 7.81, 6.51, 2.42, 1.71, 7.53, repro,
2005-09-05,-7.02, 8.73, 4.44, 2.40, 1.69, 7.49, repro,
2005-09-06,-8.43, 7.83, -2.91, 2.47, 1.71, 7.60, repro,
2005-09-07,-8.78, 10.06, -10.15, 2.58, 1.74, 7.80, repro,
2005-09-08,-8.08, 8.79, -9.11, 2.48, 1.69, 7.60, repro,
2005-09-09,-7.18, 8.28, -1.11, 2.48, 1.71, 7.62, repro,
2005-09-10,-6.91, 7.79, -3.63, 2.46, 1.68, 7.55, repro,
2005-09-11,-7.88, 8.55, -2.56, 2.47, 1.67, 7.59, repro,
2005-09-12,-6.83, 8.68, -1.99, 2.55, 1.70, 7.77, repro,
2005-09-13,-8.41, 9.16, -3.70, 2.61, 1.80, 8.02, repro,
2005-09-14,-7.21, 7.06, -0.80, 2.50, 1.74, 7.71, repro,
2005-09-15,-8.96, 9.19, -1.75, 2.57, 1.79, 7.89, repro,
2005-09-16,-8.15, 8.95, 2.29, 2.50, 1.72, 7.69, repro,
2005-09-17,-7.61, 7.14, -5.55, 2.38, 1.65, 7.48, repro,
2005-09-18,-8.57, 8.02, -6.27, 2.38, 1.66, 7.49, repro,
2005-09-19,-7.14, 8.17, -2.88, 2.45, 1.68, 7.68, repro,
2005-09-20,-7.53, 7.18, -2.10, 2.36, 1.70, 7.57, repro,
2005-09-21,-7.31, 8.87, -4.21, 2.45, 1.71, 7.95, repro,
2005-09-22,-5.48, 8.39, -2.51, 2.40, 1.68, 7.74, repro,
2005-09-23,-6.48, 8.04, -7.88, 2.36, 1.70, 7.76, repro,
2005-09-24,-8.63, 7.65, -9.61, 2.43, 1.74, 7.74, repro,
2005-09-25,-8.48, 8.29, 2.38, 2.42, 1.73, 7.66, repro,
2005-09-26,-8.24, 9.25, -2.59, 2.50, 1.77, 7.96, repro,
2005-09-27,-7.42, 8.80, 5.90, 2.48, 1.76, 7.94, repro,
2005-09-28,-8.96, 9.45, 5.65, 2.58, 1.74, 7.85, repro,
2005-09-29,-8.68, 8.89, -3.30, 2.48, 1.71, 7.77, repro,
2005-09-30,-10.48, 7.26, 8.41, 2.37, 1.66, 7.50, repro,
2005-10-01,-9.10, 9.71, 2.90, 2.38, 1.69, 7.59, repro,
2005-10-02,-10.40, 8.05, -7.20, 2.45, 1.73, 7.70, repro,
2005-10-03,-5.61, 8.41, -4.41, 2.46, 1.73, 7.73, repro,
2005-10-04,-8.62, 8.83, -10.43, 2.48, 1.70, 7.68, repro,
2005-10-05,-8.85, 8.53, -5.63, 2.50, 1.74, 7.92, repro,
2005-10-06,-7.12, 7.57, -1.19, 2.39, 1.67, 7.46, repro,
2005-10-07,-8.99, 9.74, -0.73, 2.42, 1.68, 7.57, repro,
2005-10-08,-8.66, 9.30, -7.16, 2.41, 1.67, 7.51, repro,
2005-10-09,-9.15, 8.80, -8.02, 2.40, 1.68, 7.52, repro,
2005-10-10,-9.04, 8.94, -1.98, 2.56, 1.86, 8.20, repro,
2005-10-11,-8.21, 8.70, -6.65, 2.41, 1.73, 7.63, repro,
2005-10-12,-7.48, 9.28, -9.13, 2.46, 1.74, 7.74, repro,
2005-10-13,-10.27, 6.60, -2.49, 2.50, 1.69, 7.75, repro,
2005-10-14,-7.25, 12.36, -9.16, 2.44, 1.67, 7.54, repro,
2005-10-15,-7.75, 10.21, -7.25, 2.36, 1.70, 7.50, repro,
2005-10-16,-8.79, 9.34, -0.77, 2.47, 1.70, 7.85, repro,
2005-10-17,-7.91, 10.38, -0.92, 2.41, 1.69, 7.50, repro,
2005-10-18,-7.96, 8.38, -0.61, 2.65, 1.93, 8.41, repro,
2005-10-19,-9.67, 8.48, -8.97, 2.46, 1.73, 7.73, repro,
2005-10-20,-8.84, 8.43, -6.06, 2.61, 1.71, 7.84, repro,
2005-10-21,-7.45, 8.28, -2.54, 2.38, 1.69, 7.65, repro,
2005-10-22,-8.24, 8.61, 1.19, 2.31, 1.65, 7.39, repro,
2005-10-23,-7.03, 9.45, -5.26, 2.46, 1.74, 7.75, repro,
2005-10-24,-9.49, 9.33, -4.75, 2.42, 1.68, 7.55, repro,
2005-10-25,-11.04, 13.10, -9.33, 2.53, 1.79, 7.91, repro,
2005-10-26,-6.48, 10.72, -12.88, 2.52, 1.83, 8.06, repro,
2005-10-27,-8.63, 8.55, -9.04, 2.43, 1.72, 7.71, repro,
2005-10-28,-9.70, 9.60, -3.25, 2.40, 1.68, 7.49, repro,
2005-10-29,-9.88, 8.24, -8.08, 2.42, 1.69, 7.59, repro,
2005-10-30,-10.84, 10.17, -7.83, 2.40, 1.69, 7.50, repro,
2005-10-31,-10.10, 9.13, -7.10, 2.54, 1.82, 7.92, repro,
2005-11-01,-9.52, 8.56, -8.22, 2.59, 1.80, 8.11, repro,
2005-11-02,-9.45, 9.54, -4.91, 2.48, 1.86, 8.00, repro,
2005-11-03,-10.16, 10.82, 4.50, 2.40, 1.76, 7.66, repro,
2005-11-04,-6.72, 9.61, 9.17, 2.50, 1.82, 7.96, repro,
2005-11-05,-6.21, 10.75, 3.03, 2.60, 1.92, 8.26, repro,
2005-11-06,-4.16, 11.46, -7.71, 2.53, 1.86, 7.98, repro,
2005-11-07,-7.00, 8.14, -11.19, 2.57, 1.93, 8.24, repro,
2005-11-08,-9.01, 10.85, -11.76, 2.53, 1.87, 8.09, repro,
2005-11-09,-9.68, 9.42, -10.38, 2.55, 1.90, 8.19, repro,
2005-11-10,-9.26, 8.25, -10.97, 2.70, 1.92, 8.58, repro,
2005-11-11,-8.40, 8.59, 0.39, 2.52, 1.89, 8.13, repro,
2005-11-12,-8.46, 10.71, -10.12, 2.44, 1.77, 7.68, repro,
2005-11-13,-9.51, 10.68, -12.89, 2.47, 1.75, 7.75, repro,
2005-11-14,-9.34, 9.39, -14.06, 2.34, 1.68, 7.42, repro,
2005-11-15,-8.48, 11.15, -19.64, 2.30, 1.59, 7.26, repro,
2005-11-16,-7.61, 10.80, -28.55, 2.42, 1.71, 7.70, repro,
2005-11-17,-8.91, 9.86, -18.51, 2.32, 1.61, 7.30, repro,
2005-11-18,-10.26, 11.18, -17.28, 3.61, 2.71, 11.81, repro,
2005-11-19,-8.25, 10.66, -9.20, 2.48, 1.73, 7.79, repro,
2005-11-20,-9.97, 12.17, -16.27, 2.95, 1.96, 9.20, repro,
2005-11-21,-9.23, 10.77, -9.32, 2.53, 1.70, 7.97, repro,
2005-11-22,-9.15, 10.84, -13.52, 2.53, 1.80, 8.26, repro,
2005-11-23,-8.56, 10.76, -9.87, 2.34, 1.66, 7.48, repro,
2005-11-24,-12.74, 9.79, -6.97, 2.34, 1.63, 7.42, repro,
2005-11-25,-11.26, 10.10, -2.67, 2.29, 1.60, 7.21, repro,
2005-11-26,-8.76, 11.21, -5.18, 2.38, 1.67, 7.57, repro,
2005-11-27,-10.13, 9.65, -14.04, 2.27, 1.59, 7.21, repro,
2005-11-28,-8.38, 10.75, -15.19, 2.33, 1.66, 7.51, repro,
2005-11-29,-9.99, 9.94, -8.01, 2.39, 1.66, 7.49, repro,
2005-11-30,-9.42, 8.20, -14.36, 2.34, 1.62, 7.32, repro,
2005-12-01,-10.78, 9.89, -9.59, 2.28, 1.58, 7.15, repro,
2005-12-02,-9.22, 10.08, -9.41, 2.28, 1.58, 7.17, repro,
2005-12-03,-9.36, 10.16, -14.10, 2.26, 1.58, 7.12, repro,
2005-12-04,-9.96, 10.22, -20.67, 2.25, 1.57, 7.10, repro,
2005-12-05,-8.63, 9.90, -13.92, 2.27, 1.59, 7.16, repro,
2005-12-06,-9.84, 10.91, -16.07, 2.25, 1.55, 7.04, repro,
2005-12-07,-10.08, 9.84, -11.69, 2.32, 1.63, 7.34, repro,
2005-12-08,-9.90, 9.87, -13.23, 2.31, 1.61, 7.31, repro,
2005-12-09,-10.30, 10.26, -13.19, 2.31, 1.60, 7.21, repro,
2005-12-10,-10.00, 9.70, -12.79, 2.34, 1.63, 7.36, repro,
2005-12-11,-9.68, 9.87, -10.94, 2.35, 1.64, 7.43, repro,
2005-12-12,-10.00, 9.80, -12.27, 2.27, 1.55, 7.10, repro,
2005-12-13,-10.00, 9.31, -11.43, 2.26, 1.55, 7.08, repro,
2005-12-14,-10.92, 9.05, -20.04, 2.31, 1.64, 7.42, repro,
2005-12-15,-9.57, 9.23, -18.61, 2.34, 1.62, 7.37, repro,